Toluca Jose Maria, Mexico

3:10 PM CDT on April 23, 2018 (GMT -0500)
Lic Adolfo Lopez Mateos International

Weather History for MMTO - June, 2014

Change the Weather History Date:

Monday, June 9, 2014

  Actual Average Record
Temperature  
Mean Temperature 62 °F -  
Max Temperature 73 °F 71 °F 84 °F (2005)
Min Temperature 50 °F 48 °F 33 °F (2008)
Degree Days  
Heating Degree Days 4    
Growing Degree Days 12 (Base 50)    
Moisture  
Dew Point 49 °F    
Average Humidity 73    
Maximum Humidity 100    
Minimum Humidity 41    
Precipitation  
Precipitation 0.00 in - - ()
Sea Level Pressure  
Sea Level Pressure 30.09 in    
Wind  
Wind Speed 4 mph ()    
Max Wind Speed 20 mph    
Max Gust Speed -    
Visibility 5.6 miles    
Events      
Averages and records for this station are not official NWS values.
T = Trace of Precipitation, MM = Missing Value Source: Averaged Metar Reports

Daily Weather History Graph

Daily Weather History Graph

Search for Another Location

Airport or City:

Astronomy

Jun. 09, 2014 Rise Set
Actual Time 6:59 AM CDT 8:15 PM CDT
Civil Twilight 6:35 AM CDT 8:40 PM CDT
Nautical Twilight 6:06 AM CDT 9:09 PM CDT
Astronomical Twilight 5:36 AM CDT 9:38 PM CDT
Moon 5:01 PM CDT (6/9) 4:00 AM CDT (6/9)
Length of Visible Light 14h 05m
Length of Day
13h 16m
Waxing Gibbous, 85% of the Moon is Illuminated
Jun 9
Waxing Gibbous
Jun 12
Full
Jun 19
Last Quarter
Jun 27
New
Jul 5
First Quarter

Hourly Weather History & Observations

Time (CDT) Temp. Dew Point Humidity Pressure Visibility Wind Dir Wind Speed Gust Speed Precip Events Conditions
12:41 AM 53.6 °F 50.0 °F 88% 29.74 in 6.0 mi Calm Calm - N/A   Mostly Cloudy
1:40 AM 53.6 °F 50.0 °F 88% 30.31 in 6.0 mi Calm Calm - N/A   Mostly Cloudy
2:40 AM 53.6 °F 48.2 °F 82% 30.30 in 6.0 mi Calm Calm - N/A   Mostly Cloudy
3:47 AM 51.8 °F 48.2 °F 88% 29.75 in 6.0 mi Calm Calm - N/A   Mostly Cloudy
4:42 AM 50.0 °F 46.4 °F 87% 30.25 in 6.0 mi Calm Calm - N/A   Mostly Cloudy
5:43 AM 50.0 °F 48.2 °F 94% 30.27 in 6.0 mi Calm Calm - N/A   Mostly Cloudy
6:45 AM 51.8 °F 48.2 °F 88% 29.78 in 6.0 mi NNW 3.5 mph - N/A   Mostly Cloudy
7:49 AM 50.0 °F 48.2 °F 94% 30.28 in 4.0 mi Calm Calm - N/A   Mostly Cloudy
8:46 AM 55.4 °F 50.0 °F 82% 30.38 in 4.0 mi Calm Calm - N/A   Mostly Cloudy
9:46 AM 60.8 °F 51.8 °F 72% 29.75 in 4.0 mi SE 6.9 mph - N/A   Mostly Cloudy
10:41 AM 64.4 °F 48.2 °F 56% 30.30 in 4.0 mi SE 6.9 mph - N/A   Mostly Cloudy
11:42 AM 68.0 °F 50.0 °F 52% 30.29 in 6.0 mi SE 8.1 mph - N/A   Scattered Clouds
12:40 PM 68.0 °F 48.2 °F 49% 29.70 in 7.0 mi SE 8.1 mph - N/A   Mostly Cloudy
1:43 PM 73.4 °F 48.2 °F 41% 30.26 in 6.0 mi SSE 10.4 mph - N/A   Mostly Cloudy
2:42 PM 68.0 °F 50.0 °F 52% 30.26 in 6.0 mi SSE 19.6 mph - N/A   Mostly Cloudy
3:45 PM 71.6 °F 48.2 °F 43% 29.63 in 6.0 mi South 13.8 mph - N/A   Mostly Cloudy
4:42 PM 68.0 °F 48.2 °F 49% 30.20 in 6.0 mi South 11.5 mph - N/A   Mostly Cloudy
5:45 PM 50.0 °F 48.2 °F 94% 30.21 in 6.0 mi South 9.2 mph - N/A   Mostly Cloudy
6:44 PM 50.0 °F 50.0 °F 100% 29.67 in 6.0 mi South 9.2 mph - N/A   Overcast
7:51 PM 62.6 °F 48.2 °F 59% 30.23 in 6.0 mi SE 10.4 mph - N/A   Overcast
8:40 PM 60.8 °F 50.0 °F 68% 30.25 in 6.0 mi SSE 9.2 mph - N/A   Mostly Cloudy
9:43 PM 57.2 °F 50.0 °F 77% 29.69 in 6.0 mi SE 6.9 mph - N/A   Mostly Cloudy
10:45 PM 57.2 °F 50.0 °F 77% 30.30 in 5.0 mi ESE 4.6 mph - N/A   Mostly Cloudy
11:45 PM 55.4 °F 50.0 °F 82% 30.31 in 5.0 mi SSE 4.6 mph - N/A   Mostly Cloudy